Location: Unspecified
(13.9167°N, 0.0000°E)
Time: 17:33:43
(UTC+00:00)

SPELTRA - Pass Details

Date: 29 December 1899
Orbit: 567 x 26558 km, 7.9° (Epoch: 29 March)

Event Time Altitude Azimuth Distance (km) Brightness Sun altitude
Rises 17:16:56 0° 229° (SW) 3,917 8.5 1.1°
Reaches altitude 10° 17:19:06 10° 216° (SW) 3,523 7.6 0.6°
Maximum altitude 17:27:53 32° 153° (SSE) 4,524 6.9 -1.3°
Drops below altitude 10° 00:36:56 10° 88° (E) 18,078 10.0 -74.9°
Sets 00:52:17 0° 87° (E) 15,966 9.9 -71.9°
